Location: Bratsk-Energetik
(56.3300°N, 101.7600°E)
Time: 22:44:03
(UTC+08:00)

ISS - Pass Details

Date: 20 May 2017
Orbit: 401 x 407 km, 51.6° (Epoch: 23 September)

Event Time Altitude Azimuth Distance (km) Brightness Sun altitude
Exits shadow 00:37:31 - 112° (ESE) 1,572 -1.1 -13.5°
Enters shadow 01:43:23 -51° 253° (WSW) 10,425 3.2 -13.4°
Maximum altitude 02:11:25 30° 166° (SSE) 776 -2.9 -12.6°
Sets 02:16:36 0° 93° (E) 2,345 0.2 -12.4°
